Weather History for KLWB - September, 2013

Change the Weather History Date:

Monday, September 9, 2013

  Actual Average Record
Temperature  
Mean Temperature 66 °F 64 °F  
Max Temperature 77 °F 77 °F 90 °F (2007)
Min Temperature 55 °F 52 °F 40 °F (1986)
Degree Days  
Heating Degree Days 0    
Month to date heating degree days  
Since 1 July heating degree days  
Cooling Degree Days 1    
Month to date cooling degree days  
Year to date cooling degree days  
Growing Degree Days 16 (Base 50)    
Moisture  
Dew Point 59 °F    
Average Humidity 82    
Maximum Humidity 100    
Minimum Humidity 61    
Precipitation  
Precipitation 0.00 in 0.10 in 0.00 in (2013)
Month to date precipitation 0.94  
Year to date precipitation 29.04  
Snow  
Snow 0.00 in - - ()
Month to date snowfall  
Since 1 July snowfall  
Since 1 September snowfall  
Snow Depth -    
Sea Level Pressure  
Sea Level Pressure 30.20 in    
Wind  
Wind Speed 2 mph (ENE)    
Max Wind Speed 6 mph    
Max Gust Speed -    
Visibility 5 miles    
Events Fog    
T = Trace of Precipitation, MM = Missing Value Source: NWS Daily Summary

Daily Weather History Graph

Daily Weather History Graph

Search for Another Location

Airport or City:

Trip Planner

Search our weather history database for the weather conditions in past years. The results will help you decide how hot, cold, wet, or windy it might be!

Date:

Astronomy

Sep. 09, 2013 Rise Set
Actual Time 6:58 AM EDT 7:38 PM EDT
Civil Twilight 6:32 AM EDT 8:04 PM EDT
Nautical Twilight 6:00 AM EDT 8:36 PM EDT
Astronomical Twilight 5:28 AM EDT 9:08 PM EDT
Moon 11:13 AM EDT (9/9) 9:59 PM EDT (9/9)
Length of Visible Light 13h 32m
Length of Day
12h 39m
Waxing Crescent, 19% of the Moon is Illuminated
Sep 9
Waxing Crescent
Sep 12
First Quarter
Sep 19
Full
Sep 26
Last Quarter
Oct 4
New

Hourly Weather History & Observations

Time (EDT) Temp. Dew Point Humidity Pressure Visibility Wind Dir Wind Speed Gust Speed Precip Events Conditions
12:15 AM 60.8 °F 57.2 °F 88% 30.13 in 5.0 mi Calm Calm - N/A   Clear
12:35 AM 60.8 °F 57.2 °F 88% 30.13 in 3.0 mi Calm Calm - N/A   Clear
12:55 AM 60.8 °F 59.0 °F 94% 30.14 in 2.5 mi Calm Calm - N/A   Clear
1:15 AM 60.8 °F 59.0 °F 94% 30.14 in 5.0 mi North 3.5 mph - N/A   Clear
1:35 AM 60.8 °F 59.0 °F 94% 30.15 in 4.0 mi North 3.5 mph - N/A   Scattered Clouds
1:55 AM 60.8 °F 57.2 °F 88% 30.15 in 2.5 mi Calm Calm - N/A   Overcast
2:15 AM 60.8 °F 57.2 °F 88% 30.15 in 4.0 mi Calm Calm - N/A   Mostly Cloudy
2:35 AM 59.0 °F 55.4 °F 88% 30.15 in 2.0 mi East 3.5 mph - N/A   Scattered Clouds
2:55 AM 59.0 °F 57.2 °F 94% 30.15 in 1.5 mi Calm Calm - N/A   Scattered Clouds
3:15 AM 59.0 °F 55.4 °F 88% 30.14 in 1.0 mi Calm Calm - N/A   Mostly Cloudy
3:35 AM 59.0 °F 55.4 °F 88% 30.14 in 0.2 mi Calm Calm - N/A Fog Fog
3:55 AM 57.2 °F 55.4 °F 94% 30.15 in 0.2 mi Calm Calm - N/A Fog Fog
4:15 AM 57.2 °F 55.4 °F 94% 30.15 in 0.2 mi Calm Calm - N/A Fog Fog
4:35 AM 57.2 °F 55.4 °F 94% 30.15 in 0.2 mi NNE 3.5 mph - N/A Fog Fog
4:55 AM 57.2 °F 55.4 °F 94% 30.17 in 0.2 mi NNE 3.5 mph - N/A Fog Fog
5:15 AM 57.2 °F 55.4 °F 94% 30.17 in 0.2 mi Calm Calm - N/A Fog Fog
5:35 AM 57.2 °F 55.4 °F 94% 30.17 in 0.2 mi Calm Calm - N/A Fog Fog
5:55 AM 57.2 °F 55.4 °F 94% 30.18 in 0.2 mi NNE 4.6 mph - N/A Fog Fog
6:15 AM 55.4 °F 55.4 °F 100% 30.18 in 0.2 mi NNE 3.5 mph - N/A Fog Fog
6:35 AM 55.4 °F 55.4 °F 100% 30.18 in 0.2 mi Calm Calm - N/A Fog Fog
6:55 AM 55.4 °F 53.6 °F 94% 30.19 in 0.2 mi Calm Calm - N/A Fog Fog
7:15 AM 55.4 °F 53.6 °F 94% 30.20 in 0.2 mi NNE 3.5 mph - N/A Fog Fog
7:35 AM 55.4 °F 53.6 °F 94% 30.21 in 0.2 mi NNE 4.6 mph - N/A Fog Fog
7:55 AM 55.4 °F 55.4 °F 100% 30.21 in 0.2 mi Calm Calm - N/A Fog Fog
8:15 AM 57.2 °F 55.4 °F 94% 30.22 in 0.2 mi Calm Calm - N/A Fog Fog
8:35 AM 57.2 °F 55.4 °F 94% 30.22 in 0.2 mi NNE 4.6 mph - N/A Fog Fog
8:55 AM 59.0 °F 57.2 °F 94% 30.22 in 1.8 mi Calm Calm - N/A   Overcast
9:15 AM 60.8 °F 59.0 °F 94% 30.22 in 3.0 mi NNE 4.6 mph - N/A   Overcast
9:35 AM 62.6 °F 60.8 °F 94% 30.22 in 4.0 mi NNE 3.5 mph - N/A   Overcast
9:55 AM 62.6 °F 60.8 °F 94% 30.23 in 5.0 mi NNE 4.6 mph - N/A   Overcast
10:15 AM 64.4 °F 60.8 °F 88% 30.23 in 5.0 mi NNE 4.6 mph - N/A   Haze
10:35 AM 66.2 °F 60.8 °F 83% 30.22 in 7.0 mi Calm Calm - N/A   Overcast
10:55 AM 68.0 °F 60.8 °F 78% 30.24 in 7.0 mi NE 3.5 mph - N/A   Overcast
11:15 AM 68.0 °F 60.8 °F 78% 30.25 in 7.0 mi Calm Calm - N/A   Overcast
11:35 AM 69.8 °F 60.8 °F 73% 30.25 in 7.0 mi ENE 3.5 mph - N/A   Overcast
11:55 AM 69.8 °F 60.8 °F 73% 30.24 in 7.0 mi NE 4.6 mph - N/A   Overcast
12:15 PM 69.8 °F 60.8 °F 73% 30.24 in 10.0 mi Calm Calm - N/A   Overcast
12:35 PM 69.8 °F 60.8 °F 73% 30.24 in 7.0 mi ESE 3.5 mph - N/A   Overcast
12:55 PM 71.6 °F 60.8 °F 69% 30.24 in 10.0 mi ESE 4.6 mph - N/A   Overcast
1:15 PM 69.8 °F 60.8 °F 73% 30.24 in 10.0 mi Calm Calm - N/A   Overcast
1:35 PM 71.6 °F 60.8 °F 69% 30.23 in 10.0 mi SSE 3.5 mph - N/A   Overcast
1:55 PM 73.4 °F 60.8 °F 65% 30.22 in 10.0 mi SSE 4.6 mph - N/A   Scattered Clouds
2:15 PM 73.4 °F 60.8 °F 65% 30.22 in 10.0 mi South 4.6 mph - N/A   Mostly Cloudy
2:35 PM 73.4 °F 60.8 °F 65% 30.22 in 10.0 mi SE 3.5 mph - N/A   Overcast
2:55 PM 73.4 °F 60.8 °F 65% 30.21 in 10.0 mi ESE 3.5 mph - N/A   Mostly Cloudy
3:15 PM 73.4 °F 60.8 °F 65% 30.21 in 10.0 mi Calm Calm - N/A   Overcast
3:35 PM 73.4 °F 60.8 °F 65% 30.20 in 10.0 mi ESE 4.6 mph - N/A   Overcast
3:55 PM 77.0 °F 62.6 °F 61% 30.20 in 10.0 mi SSE 5.8 mph - N/A   Mostly Cloudy
4:15 PM 73.4 °F 60.8 °F 65% 30.20 in 10.0 mi SSE 3.5 mph - N/A   Mostly Cloudy
4:35 PM 73.4 °F 60.8 °F 65% 30.19 in 10.0 mi SSE 3.5 mph - N/A   Mostly Cloudy
4:55 PM 73.4 °F 60.8 °F 65% 30.19 in 10.0 mi East 4.6 mph - N/A   Mostly Cloudy
5:15 PM 73.4 °F 60.8 °F 65% 30.20 in 10.0 mi SE 4.6 mph - N/A   Mostly Cloudy
5:35 PM 73.4 °F 60.8 °F 65% 30.20 in 10.0 mi East 4.6 mph - N/A   Scattered Clouds
5:55 PM 73.4 °F 62.6 °F 69% 30.19 in 10.0 mi ESE 4.6 mph - N/A   Scattered Clouds
6:15 PM 73.4 °F 60.8 °F 65% 30.19 in 10.0 mi SE 4.6 mph - N/A   Clear
6:35 PM 71.6 °F 60.8 °F 69% 30.19 in 10.0 mi ESE 4.6 mph - N/A   Scattered Clouds
6:55 PM 71.6 °F 60.8 °F 69% 30.19 in 10.0 mi SE 3.5 mph - N/A   Mostly Cloudy
7:15 PM 71.6 °F 60.8 °F 69% 30.19 in 10.0 mi Calm Calm - N/A   Mostly Cloudy
7:35 PM 69.8 °F 60.8 °F 73% 30.19 in 10.0 mi Calm Calm - N/A   Overcast
7:55 PM 69.8 °F 60.8 °F 73% 30.20 in 10.0 mi Calm Calm - N/A   Scattered Clouds
8:15 PM 69.8 °F 60.8 °F 73% 30.21 in 7.0 mi Calm Calm - N/A   Scattered Clouds
8:35 PM 68.0 °F 60.8 °F 78% 30.21 in 7.0 mi Calm Calm - N/A   Scattered Clouds
8:55 PM 66.2 °F 60.8 °F 83% 30.22 in 7.0 mi Calm Calm - N/A   Clear
9:15 PM 64.4 °F 60.8 °F 88% 30.22 in 7.0 mi Calm Calm - N/A   Clear
9:35 PM 64.4 °F 60.8 °F 88% 30.23 in 5.0 mi Calm Calm - N/A   Clear
9:55 PM 62.6 °F 60.8 °F 94% 30.23 in 4.0 mi Calm Calm - N/A   Clear
10:15 PM 62.6 °F 60.8 °F 94% 30.23 in 4.0 mi Calm Calm - N/A   Clear
10:35 PM 64.4 °F 60.8 °F 88% 30.23 in 5.0 mi Calm Calm - N/A   Haze
10:55 PM 64.4 °F 60.8 °F 88% 30.24 in 5.0 mi North 4.6 mph - N/A   Clear
11:15 PM 62.6 °F 60.8 °F 94% 30.25 in 3.0 mi Calm Calm - N/A   Mist
11:35 PM 62.6 °F 59.0 °F 88% 30.24 in 3.0 mi Calm Calm - N/A   Mist
11:55 PM 60.8 °F 59.0 °F 94% 30.25 in 2.5 mi Calm Calm - N/A   Mist